TimeCST,TemperatureF,Dew PointF,Humidity,Sea Level PressureIn,VisibilityMPH,Wind Direction,Wind SpeedMPH,Gust SpeedMPH,PrecipitationIn,Events,Conditions,WindDirDegrees,DateUTC
12:15 AM,28.4,15.8,59,30.07,10.0,SSE,3.5,-,N/A,,Overcast,150,2013-03-05 06:15:00
12:35 AM,28.4,15.8,59,30.07,10.0,Calm,Calm,-,N/A,,Overcast,0,2013-03-05 06:35:00
12:55 AM,28.4,15.8,59,30.08,10.0,SE,3.5,-,N/A,,Overcast,140,2013-03-05 06:55:00
1:15 AM,28.4,15.8,59,30.07,10.0,SE,3.5,-,N/A,,Overcast,130,2013-03-05 07:15:00
1:35 AM,28.4,15.8,59,30.06,10.0,East,5.8,-,N/A,,Overcast,100,2013-03-05 07:35:00
1:55 AM,28.4,15.8,59,30.06,10.0,East,3.5,-,N/A,,Overcast,100,2013-03-05 07:55:00
2:15 AM,28.4,17.6,64,30.05,10.0,Calm,Calm,-,N/A,,Overcast,0,2013-03-05 08:15:00
2:35 AM,28.4,15.8,59,30.04,10.0,East,6.9,-,N/A,,Overcast,90,2013-03-05 08:35:00
2:55 AM,28.4,15.8,59,30.03,10.0,East,6.9,-,N/A,,Overcast,100,2013-03-05 08:55:00
3:15 AM,28.4,15.8,59,30.02,10.0,East,6.9,-,N/A,,Overcast,90,2013-03-05 09:15:00
3:35 AM,26.6,15.8,64,30.01,10.0,ENE,10.4,-,N/A,,Overcast,70,2013-03-05 09:35:00
3:55 AM,26.6,12.2,55,30.01,10.0,East,9.2,17.3,N/A,,Overcast,80,2013-03-05 09:55:00
4:15 AM,26.6,10.4,51,30.01,10.0,East,12.7,17.3,N/A,,Overcast,80,2013-03-05 10:15:00
4:35 AM,24.8,10.4,54,30.01,10.0,East,8.1,-,N/A,,Overcast,80,2013-03-05 10:35:00
4:55 AM,24.8,10.4,54,30.02,10.0,East,10.4,-,N/A,,Overcast,90,2013-03-05 10:55:00
5:15 AM,24.8,10.4,54,30.01,10.0,East,9.2,-,N/A,,Overcast,80,2013-03-05 11:15:00
5:35 AM,24.8,12.2,59,30.01,10.0,East,9.2,-,N/A,,Overcast,90,2013-03-05 11:35:00
6:15 AM,24.8,14.0,64,30.02,10.0,East,4.6,-,N/A,,Overcast,90,2013-03-05 12:15:00
6:35 AM,24.8,14.0,64,30.02,10.0,East,4.6,-,N/A,,Overcast,80,2013-03-05 12:35:00
7:15 AM,24.8,15.8,69,30.03,10.0,ENE,4.6,-,N/A,,Overcast,60,2013-03-05 13:15:00
7:35 AM,24.8,15.8,69,30.03,10.0,ENE,3.5,-,N/A,,Overcast,60,2013-03-05 13:35:00
7:55 AM,24.8,15.8,69,30.04,10.0,Calm,Calm,-,N/A,,Overcast,0,2013-03-05 13:55:00
8:15 AM,24.8,15.8,69,30.04,10.0,NE,5.8,-,N/A,,Overcast,40,2013-03-05 14:15:00
8:35 AM,24.8,15.8,69,30.04,10.0,NE,5.8,-,N/A,,Mostly Cloudy,50,2013-03-05 14:35:00
8:55 AM,26.6,15.8,64,30.04,10.0,NE,8.1,-,N/A,,Scattered Clouds,50,2013-03-05 14:55:00
9:15 AM,26.6,14.0,59,30.05,10.0,ENE,3.5,-,N/A,,Mostly Cloudy,60,2013-03-05 15:15:00
9:35 AM,26.6,15.8,64,30.05,10.0,ENE,5.8,-,N/A,,Scattered Clouds,60,2013-03-05 15:35:00
9:55 AM,26.6,14.0,59,30.05,10.0,East,5.8,-,N/A,,Scattered Clouds,100,2013-03-05 15:55:00
10:15 AM,26.6,12.2,55,30.06,10.0,ESE,6.9,-,N/A,,Mostly Cloudy,110,2013-03-05 16:15:00
10:35 AM,28.4,12.2,51,30.05,10.0,ESE,6.9,-,N/A,,Mostly Cloudy,110,2013-03-05 16:35:00
10:55 AM,28.4,12.2,51,30.05,10.0,ENE,3.5,-,N/A,,Scattered Clouds,70,2013-03-05 16:55:00
11:15 AM,28.4,12.2,51,30.05,10.0,ENE,10.4,-,N/A,,Scattered Clouds,60,2013-03-05 17:15:00
11:35 AM,28.4,12.2,51,30.05,10.0,ENE,6.9,-,N/A,,Scattered Clouds,70,2013-03-05 17:35:00
11:55 AM,28.4,12.2,51,30.05,10.0,NNE,8.1,-,N/A,,Scattered Clouds,20,2013-03-05 17:55:00
12:15 PM,28.4,12.2,51,30.04,10.0,NE,8.1,-,N/A,,Scattered Clouds,40,2013-03-05 18:15:00
12:35 PM,28.4,12.2,51,30.03,10.0,NE,10.4,-,N/A,,Scattered Clouds,40,2013-03-05 18:35:00
12:55 PM,30.2,12.2,47,30.03,10.0,NNE,10.4,16.1,N/A,,Scattered Clouds,30,2013-03-05 18:55:00
1:15 PM,30.2,12.2,47,30.02,10.0,NNE,9.2,-,N/A,,Scattered Clouds,20,2013-03-05 19:15:00
1:35 PM,30.2,12.2,47,30.02,10.0,NNE,12.7,-,N/A,,Scattered Clouds,20,2013-03-05 19:35:00
1:55 PM,30.2,10.4,44,30.02,10.0,NNE,9.2,18.4,N/A,,Scattered Clouds,30,2013-03-05 19:55:00
2:15 PM,30.2,10.4,44,30.02,10.0,NNE,12.7,16.1,N/A,,Mostly Cloudy,20,2013-03-05 20:15:00
2:35 PM,30.2,10.4,44,30.03,10.0,NNE,10.4,-,N/A,,Mostly Cloudy,30,2013-03-05 20:35:00
2:55 PM,30.2,10.4,44,30.03,10.0,NE,8.1,-,N/A,,Overcast,40,2013-03-05 20:55:00
3:15 PM,30.2,12.2,47,30.04,10.0,NNE,13.8,17.3,N/A,,Mostly Cloudy,30,2013-03-05 21:15:00
3:35 PM,30.2,15.8,55,30.04,10.0,North,10.4,-,N/A,,Mostly Cloudy,10,2013-03-05 21:35:00
3:55 PM,30.2,17.6,60,30.05,10.0,NNE,15.0,-,N/A,,Mostly Cloudy,20,2013-03-05 21:55:00
4:15 PM,30.2,19.4,64,30.06,10.0,NNE,12.7,-,N/A,,Mostly Cloudy,20,2013-03-05 22:15:00
4:35 PM,28.4,19.4,69,30.07,10.0,NNE,11.5,-,N/A,,Mostly Cloudy,20,2013-03-05 22:35:00
4:55 PM,28.4,21.2,74,30.08,10.0,North,11.5,17.3,N/A,,Overcast,10,2013-03-05 22:55:00
5:15 PM,28.4,21.2,74,30.09,10.0,North,9.2,18.4,N/A,Snow,Light Snow,10,2013-03-05 23:15:00
5:35 PM,26.6,21.2,80,30.10,10.0,North,11.5,17.3,N/A,,Overcast,10,2013-03-05 23:35:00
5:55 PM,26.6,21.2,80,30.11,10.0,North,10.4,-,N/A,,Overcast,10,2013-03-05 23:55:00
6:15 PM,26.6,21.2,80,30.11,10.0,NNE,9.2,-,N/A,,Overcast,20,2013-03-06 00:15:00
6:35 PM,26.6,21.2,80,30.11,10.0,North,6.9,-,N/A,,Overcast,360,2013-03-06 00:35:00
6:55 PM,26.6,21.2,80,30.12,5.0,North,9.2,-,N/A,Snow,Light Snow,10,2013-03-06 00:55:00
7:15 PM,26.6,21.2,80,30.12,7.0,North,6.9,-,N/A,,Mostly Cloudy,10,2013-03-06 01:15:00
7:35 PM,26.6,21.2,80,30.12,7.0,North,6.9,-,N/A,Snow,Light Snow,10,2013-03-06 01:35:00
7:55 PM,26.6,21.2,80,30.12,7.0,North,9.2,-,N/A,Snow,Light Snow,10,2013-03-06 01:55:00
8:15 PM,26.6,21.2,80,30.12,10.0,North,9.2,16.1,N/A,,Overcast,10,2013-03-06 02:15:00
8:35 PM,26.6,21.2,80,30.13,10.0,North,9.2,17.3,N/A,,Overcast,10,2013-03-06 02:35:00
8:55 PM,26.6,23.0,86,30.13,10.0,NNE,8.1,-,N/A,,Overcast,20,2013-03-06 02:55:00
9:15 PM,24.8,23.0,93,30.14,10.0,North,5.8,-,N/A,,Overcast,10,2013-03-06 03:15:00
9:35 PM,24.8,23.0,93,30.15,10.0,North,5.8,-,N/A,,Overcast,360,2013-03-06 03:35:00
9:55 PM,24.8,23.0,93,30.16,10.0,North,8.1,-,N/A,,Overcast,10,2013-03-06 03:55:00
10:15 PM,24.8,21.2,86,30.17,10.0,North,9.2,16.1,N/A,,Overcast,360,2013-03-06 04:15:00
10:35 PM,24.8,21.2,86,30.18,10.0,North,11.5,18.4,N/A,,Overcast,10,2013-03-06 04:35:00
10:55 PM,24.8,21.2,86,30.18,10.0,North,8.1,-,N/A,,Overcast,10,2013-03-06 04:55:00
11:15 PM,24.8,21.2,86,30.18,10.0,NNE,8.1,-,N/A,,Overcast,20,2013-03-06 05:15:00
11:35 PM,24.8,21.2,86,30.19,10.0,North,5.8,-,N/A,,Overcast,360,2013-03-06 05:35:00
11:55 PM,24.8,21.2,86,30.19,10.0,North,8.1,-,N/A,,Overcast,10,2013-03-06 05:55:00